GEFSNGP_500_meanwind_216.txt.gz
Wind_Speed
31 25 23 24 26 27 27 26 24 21 22 24 23 24 23 24 23 21 21 19 18 18 18 17 16 16 17 17 17 17 18 18 17 17 17 17 18 16 15 15 15 16 16 16
35 30 26 25 24 25 26 27 26 23 22 24 25 26 25 25 24 22 21 19 18 18 18 17 17 17 17 18 18 19 19 19 18 18 18 18 18 17 17 17 17 17 17 17
35 33 29 29 27 25 25 27 26 25 25 26 28 28 27 26 24 22 22 21 20 19 18 18 18 18 18 18 18 19 19 19 18 18 17 18 18 18 18 18 18 17 17 17
33 33 33 31 28 27 27 27 26 27 28 29 29 27 27 26 24 23 21 21 21 20 19 19 19 18 18 19 19 19 19 18 17 17 18 18 19 19 19 18 18 18 18 17
33 32 32 32 30 28 27 28 27 28 29 30 28 27 27 24 24 24 21 22 22 21 21 20 20 20 19 20 20 19 19 18 18 18 18 19 19 20 19 19 19 18 18 18
34 31 30 31 30 29 28 30 29 29 30 30 29 28 27 24 24 24 23 22 22 22 22 21 21 21 20 20 20 20 20 19 19 19 19 20 20 20 20 20 19 19 18 17
34 32 30 28 27 28 29 30 29 29 30 29 30 29 27 26 25 25 24 23 23 23 22 22 22 21 21 21 20 20 20 20 20 20 20 20 20 20 21 20 20 19 18 17
35 32 30 29 28 29 29 29 29 29 30 30 29 29 28 27 26 26 25 24 24 24 24 23 22 22 21 21 20 21 21 20 20 20 20 20 20 20 21 20 19 18 18 18
36 35 33 30 31 31 31 30 30 30 31 30 30 29 28 27 27 27 26 25 25 24 24 24 23 22 22 21 21 21 21 21 21 21 20 20 20 20 20 19 18 18 18 19
36 36 35 33 32 32 31 31 31 31 31 30 30 29 28 28 27 27 26 26 25 24 24 23 23 22 22 22 22 23 22 22 21 21 21 20 21 21 20 19 19 19 19 19
37 37 36 36 34 32 31 30 31 31 31 30 29 30 29 28 28 27 26 26 25 24 23 23 23 23 23 23 23 23 23 22 22 22 22 22 22 21 21 20 20 19 20 20
36 37 36 35 34 32 31 30 31 30 29 30 30 29 29 28 28 27 26 25 25 24 23 23 23 24 24 23 23 23 23 23 22 22 22 23 23 23 22 21 21 20 21 21
37 37 37 34 32 31 30 29 28 29 29 30 29 28 27 27 26 26 25 25 25 24 24 24 24 24 24 24 24 23 23 23 23 23 23 24 24 23 23 22 22 22 22 22
34 35 35 33 33 32 30 29 28 28 28 28 28 28 27 27 26 26 25 25 25 25 25 25 25 24 24 24 24 24 24 24 24 24 25 25 24 24 23 23 23 24 24 24
34 34 33 31 31 32 31 30 29 29 28 27 27 27 26 26 26 27 26 26 26 26 26 25 24 24 24 24 24 24 24 24 25 25 25 25 25 24 24 25 25 25 25 26
35 34 33 31 31 31 31 31 30 29 29 27 27 26 26 26 27 26 27 27 27 26 25 25 25 24 24 25 25 25 25 25 26 25 25 25 25 25 26 26 26 26 27 27
33 33 32 31 31 31 31 31 30 30 29 28 27 27 27 26 27 27 28 27 27 26 26 26 26 26 25 25 25 25 25 26 26 26 26 26 26 26 27 27 28 28 27 28
33 33 33 31 32 31 30 30 30 30 29 29 28 28 28 28 27 28 28 29 28 27 27 27 26 26 26 27 27 26 26 27 27 27 26 26 27 27 28 28 28 28 28 29
31 32 33 32 31 32 31 30 30 31 30 29 27 27 27 28 28 28 28 28 28 27 27 27 27 27 27 28 28 29 28 28 28 27 26 26 27 28 28 28 28 29 29 29
31 31 31 31 31 32 32 32 32 30 29 29 29 28 28 28 28 28 28 28 28 28 28 29 29 28 28 29 29 29 29 28 27 27 27 27 28 28 28 29 29 29 29 30
31 31 31 31 31 32 32 32 31 30 30 30 29 29 29 29 28 29 28 28 28 28 28 28 29 29 29 29 29 28 28 28 28 28 28 28 28 28 29 29 30 30 30 31
31 31 31 31 31 31 32 31 31 30 30 30 30 29 29 29 28 29 29 29 29 29 29 28 28 29 29 29 28 28 27 28 28 28 28 28 28 29 29 29 29 30 31 31
31 31 31 32 32 32 32 31 31 30 30 30 30 30 30 29 28 28 29 29 28 28 28 28 28 29 29 28 27 27 27 26 26 26 27 27 27 28 28 28 29 29 30 31
30 30 30 31 31 31 31 31 31 30 29 29 29 29 29 29 28 28 28 28 28 27 27 28 29 28 27 25 25 25 25 25 26 26 27 27 27 28 28 29 29 29 30 31
29 29 29 30 30 30 31 31 31 30 29 28 29 28 28 28 28 28 27 27 27 27 27 27 27 26 25 24 24 24 24 25 25 26 26 27 28 28 29 29 30 31 31 32
27 28 28 28 29 29 29 30 30 29 28 28 27 27 27 28 28 27 27 27 27 26 26 26 26 25 25 25 25 25 25 25 25 26 26 27 28 29 29 30 31 32 32 32
27 28 28 28 28 28 28 28 28 28 28 27 27 26 26 26 27 27 27 26 25 25 25 25 25 25 25 25 25 25 25 26 27 28 27 28 29 30 30 30 31 31 31 31

GEFSNGP_500_meanwind_222.txt.gz
Wind_Speed
35 32 31 30 29 29 28 28 27 26 24 22 20 19 19 18 18 20 19 19 18 18 17 17 16 16 15 14 13 14 14 15 15 14 14 14 14 14 13 13 11 10 10 10
36 34 32 31 29 29 28 27 26 26 25 23 23 22 22 21 21 21 20 19 19 18 17 17 17 17 16 14 14 14 14 15 15 15 15 14 14 14 13 13 11 11 11 10
38 36 34 34 30 29 29 27 26 26 25 25 24 23 23 22 22 21 21 20 19 19 18 18 17 17 16 15 14 14 15 15 15 15 15 14 14 14 14 13 12 12 12 12
38 37 38 34 31 31 30 30 28 27 26 26 25 24 24 23 21 21 22 22 22 22 20 19 18 17 16 16 16 15 15 15 15 15 15 14 15 15 15 14 14 14 14 14
38 39 40 36 33 32 31 30 30 28 27 26 26 26 26 24 23 22 23 24 22 22 21 20 19 18 17 17 17 16 16 16 16 15 15 15 15 16 16 16 15 15 15 15
38 40 41 36 33 33 32 32 30 30 29 28 27 27 26 26 25 24 23 23 22 22 21 20 19 18 18 17 17 17 16 16 16 16 16 16 16 16 17 16 16 16 16 17
38 39 38 35 35 35 35 33 30 30 30 30 29 28 27 27 27 24 23 24 22 22 21 20 19 19 18 18 18 17 17 17 17 17 17 17 16 17 17 17 17 17 18 18
37 38 37 33 34 36 35 33 32 31 30 31 31 30 29 28 27 25 24 23 23 22 22 21 20 20 19 19 18 18 18 18 18 18 18 18 17 17 18 18 18 18 18 18
36 36 34 34 34 34 34 34 33 32 31 31 31 31 29 28 27 26 25 24 23 23 22 21 21 20 20 19 19 19 19 19 19 18 18 18 18 18 19 19 19 18 19 19
36 36 35 35 35 34 35 34 34 33 32 32 31 31 30 28 28 28 27 25 24 23 23 22 22 21 20 20 20 20 20 20 19 19 19 19 19 19 19 19 19 19 19 19
37 36 35 36 36 36 35 35 34 34 33 33 32 31 29 29 29 28 27 27 25 24 23 23 23 22 21 21 20 20 20 20 19 19 19 19 19 19 20 19 19 19 19 20
36 36 35 35 36 36 36 35 34 33 33 33 32 30 29 30 29 28 27 26 25 25 24 24 23 22 21 21 21 21 20 20 20 20 19 20 20 20 20 20 19 19 20 20
36 36 35 35 36 36 35 34 34 33 32 31 32 31 30 29 28 28 26 25 24 24 24 23 23 22 22 21 22 21 21 21 21 21 21 21 21 21 20 20 20 20 21 21
35 35 35 34 35 36 34 33 33 32 32 30 31 30 30 29 28 27 26 25 24 24 24 24 23 23 22 22 22 22 22 21 21 22 21 22 22 21 21 21 21 21 22 22
34 34 34 34 34 33 32 32 32 32 31 30 30 30 29 29 29 27 26 26 25 25 24 24 24 24 23 22 22 22 21 21 22 22 22 22 22 22 22 22 22 23 23 23
33 34 33 32 31 30 31 31 32 32 32 31 30 30 29 29 28 26 26 27 26 26 25 25 24 24 24 23 22 22 22 22 22 23 23 23 23 23 23 24 24 24 24 24
31 31 31 31 29 29 30 31 32 32 31 31 31 29 27 27 27 26 25 26 25 25 25 25 25 25 24 24 23 23 23 23 24 23 23 24 24 25 25 25 25 25 25 25
33 32 30 29 29 29 29 29 29 30 31 30 30 29 28 28 27 26 26 26 25 25 25 25 25 25 24 23 23 23 24 24 24 25 26 26 26 26 26 26 26 25 25 26
31 30 29 29 29 29 28 28 26 26 27 28 27 27 27 25 25 26 26 26 26 25 25 25 25 24 23 23 23 24 24 25 25 26 26 27 26 26 26 26 26 25 25 25
27 28 28 29 29 29 28 27 27 26 25 25 25 25 25 23 23 24 25 25 25 25 24 23 23 23 23 24 24 25 25 26 26 27 26 26 26 25 25 25 25 25 25 25
26 27 27 28 27 27 26 26 27 27 26 26 25 24 24 24 24 24 24 24 23 23 23 23 23 24 25 25 25 25 26 26 27 27 27 26 26 25 25 25 25 25 25 26
26 27 27 27 27 27 26 25 26 26 26 25 25 24 24 24 24 24 24 24 24 24 24 24 25 26 26 26 25 26 26 26 27 27 27 27 27 26 25 25 26 26 26 26
25 25 26 26 26 27 26 26 26 26 25 25 24 24 24 24 25 25 25 25 25 25 25 25 26 26 26 26 25 26 26 26 27 27 27 27 26 26 26 26 26 26 27 28
23 24 25 26 26 27 27 26 26 26 26 25 25 25 25 24 25 25 25 25 25 26 26 26 26 26 26 25 25 25 25 26 27 27 26 26 26 26 26 26 27 27 28 28
23 23 24 25 26 26 26 27 27 26 25 26 25 25 25 25 24 24 25 25 25 25 24 25 25 25 25 25 26 26 26 26 26 26 26 26 26 26 26 26 28 28 29 29
23 24 24 25 26 26 27 27 27 27 26 26 26 25 25 25 25 25 25 24 24 24 24 25 25 25 25 26 26 27 27 26 26 26 26 26 26 26 26 27 28 29 29 30
22 23 25 26 27 28 28 28 28 27 27 26 25 25 25 24 24 24 24 24 24 24 25 25 25 25 26 26 27 27 27 27 27 26 26 26 26 27 28 28 29 30 30 31

GEFSNGP_500_meanwind_228.txt.gz
Wind_Speed
37 36 35 35 34 33 32 29 28 26 24 21 20 18 17 16 15 14 14 14 14 14 14 14 15 15 16 16 16 16 16 16 16 16 16 16 16 15 15 15 14 14 13 13
38 37 36 36 35 34 33 31 29 28 26 23 21 21 19 18 16 16 16 16 16 16 15 15 15 16 16 16 16 17 17 17 16 16 17 16 16 16 16 15 15 15 15 14
38 37 37 38 36 35 34 32 30 28 26 24 23 21 20 19 18 17 17 18 18 18 18 17 17 17 17 17 17 18 18 18 17 17 17 17 17 17 17 16 17 16 16 15
37 37 39 37 36 35 35 33 30 29 27 26 24 23 22 21 20 20 20 20 20 20 20 19 19 18 18 18 18 19 19 19 18 17 18 18 18 18 18 18 17 17 16 16
37 37 38 37 36 36 35 34 31 30 28 27 25 24 23 22 22 22 21 21 21 21 20 20 20 20 19 19 19 19 20 19 19 18 18 18 19 19 19 19 18 17 16 17
38 38 38 37 36 35 34 34 31 29 27 27 27 26 24 23 23 23 22 22 23 23 22 22 21 21 21 20 20 20 20 19 19 19 19 19 19 19 19 19 19 18 17 17
38 38 37 36 36 34 35 32 30 30 29 27 27 26 24 24 24 24 24 24 24 24 24 24 23 21 21 21 21 21 20 19 19 19 19 19 20 20 20 20 19 18 18 18
39 39 38 36 35 35 33 31 30 30 30 28 27 26 26 25 25 25 25 25 26 26 25 24 24 24 22 21 21 21 20 20 20 20 20 20 21 21 20 20 20 19 19 19
39 39 37 36 36 35 33 32 31 31 30 30 28 28 28 27 27 27 27 26 27 27 26 25 26 25 24 24 23 23 21 21 21 21 21 22 22 21 21 21 20 20 20 20
37 37 37 35 34 34 33 32 31 31 31 30 30 30 29 29 29 29 27 27 28 27 27 27 27 25 24 23 22 22 22 21 21 22 22 22 22 22 22 22 22 22 21 21
37 36 36 34 33 33 33 32 32 31 32 32 31 31 30 29 29 28 29 29 29 29 27 27 25 23 23 23 22 22 21 21 21 22 22 22 22 22 22 22 22 23 22 22
37 36 35 34 33 32 32 33 32 32 32 31 32 32 32 30 29 29 28 28 28 27 27 26 25 24 23 23 22 22 21 21 22 22 22 22 22 22 23 23 23 24 23 23
37 36 35 34 33 33 32 33 32 31 31 32 32 32 31 30 29 29 29 28 28 27 26 26 26 25 24 24 24 23 23 22 22 22 22 22 22 23 23 24 24 25 25 24
36 36 35 34 34 34 33 32 32 31 31 32 32 32 32 30 29 29 29 28 27 27 26 25 25 24 24 24 24 24 24 23 22 22 22 23 23 23 24 24 25 25 26 25
36 35 34 33 33 34 34 33 33 32 32 33 32 32 31 30 29 28 28 26 26 26 26 25 25 25 24 24 24 24 24 23 23 23 23 23 23 24 24 24 25 25 25 26
34 34 33 33 34 34 34 34 33 32 32 31 30 30 29 29 27 27 27 26 26 27 27 26 26 25 25 24 24 24 25 25 24 24 24 24 24 24 24 24 25 25 25 25
34 34 34 33 33 33 33 33 33 32 32 31 31 30 29 28 28 28 28 27 28 27 27 28 27 26 25 25 25 25 25 25 25 25 25 25 25 25 25 25 26 26 26 26
32 33 34 33 33 33 33 32 32 31 31 31 30 30 29 28 28 27 27 27 27 27 27 27 28 27 26 26 25 25 25 25 25 25 25 25 25 25 26 26 26 27 27 27
32 32 32 33 32 31 31 30 30 29 28 28 29 29 29 28 28 27 26 26 26 26 26 27 27 26 25 24 25 25 25 25 25 25 25 25 25 26 27 27 27 28 28 28
31 31 31 31 31 30 30 29 29 28 28 28 28 28 28 28 27 27 27 26 26 26 26 26 25 24 23 23 24 25 25 25 25 25 25 25 26 27 27 28 28 28 28 29
29 28 27 28 28 28 28 28 28 27 27 28 28 27 27 26 26 26 26 26 26 27 26 25 24 24 25 25 26 26 26 25 25 25 25 26 26 27 28 28 28 29 29 29
27 26 26 26 27 27 28 28 27 26 26 26 26 25 25 26 26 26 26 26 26 26 26 25 26 25 25 26 26 27 26 25 26 26 26 27 28 28 29 29 29 30 30 30
25 25 26 27 27 27 27 27 26 25 25 25 25 25 25 26 26 26 26 26 26 25 25 25 25 26 26 26 26 27 26 26 26 27 27 28 29 29 30 31 31 32 31 31
23 24 25 25 26 25 26 26 26 25 25 25 25 25 25 25 26 26 26 26 25 26 26 25 25 25 25 25 26 26 27 27 27 27 28 29 29 30 31 32 32 32 31 31
22 21 22 23 23 24 23 23 23 24 24 24 24 23 24 24 25 25 25 26 25 25 26 26 25 25 26 26 26 26 27 27 28 28 28 29 30 30 31 31 31 31 31 31
22 21 22 22 22 22 23 23 23 23 24 24 24 23 23 23 23 23 23 23 23 23 23 23 24 25 26 26 27 27 27 28 29 29 29 30 30 30 30 30 30 31 31 31
21 21 21 21 22 23 23 23 24 24 24 24 24 24 23 23 24 24 23 23 24 24 24 24 24 25 26 27 27 27 28 29 29 29 29 30 30 30 30 30 31 32 33 33

GEFSNGP_500_meanwind_234.txt.gz
Wind_Speed
34 33 33 32 32 31 30 29 26 24 23 22 21 19 17 16 16 15 15 15 14 14 14 15 15 15 14 13 13 13 14 14 14 15 15 15 14 15 15 15 15 15 15 15
36 35 33 33 33 32 31 30 28 26 25 24 23 22 20 19 18 17 17 16 16 16 16 16 16 15 15 14 14 14 14 14 15 16 16 16 15 16 16 16 16 16 16 15
35 35 35 35 34 33 32 30 29 27 26 26 25 23 22 21 20 19 18 18 17 18 17 17 17 16 16 16 16 16 16 16 16 16 16 17 17 16 16 16 17 17 17 16
35 35 37 35 34 33 32 31 29 28 28 27 26 24 24 23 22 21 20 20 19 20 19 18 18 17 18 18 18 18 17 17 18 18 18 18 17 17 17 17 18 18 17 16
36 36 36 36 35 33 32 32 31 30 29 28 27 26 26 26 24 23 22 22 22 22 21 21 21 20 20 20 20 20 19 19 19 19 20 19 18 18 19 18 18 18 17 17
38 36 35 36 34 32 32 33 32 31 30 29 29 29 28 27 26 25 24 24 24 23 23 23 22 22 22 22 22 22 21 21 21 22 22 21 21 20 19 19 19 18 17 18
38 37 35 36 33 32 33 32 30 30 30 30 29 28 28 28 27 26 26 26 26 25 25 24 24 24 24 24 24 23 23 23 23 23 23 23 22 21 20 20 19 19 18 19
38 37 37 36 34 34 33 31 30 30 29 30 29 29 28 28 28 28 27 28 27 27 26 25 25 25 25 25 24 24 24 24 25 25 24 23 23 22 21 20 19 19 19 20
38 37 37 35 34 34 33 32 30 30 30 30 29 29 28 28 28 28 27 27 27 28 27 26 26 26 26 25 25 25 25 25 25 25 24 24 22 21 21 20 20 20 20 20
38 37 35 34 33 33 33 33 31 30 30 30 30 29 29 29 29 29 28 28 28 28 28 28 27 26 27 27 26 26 26 26 25 25 24 23 22 22 21 21 21 21 21 21
38 37 35 34 32 32 32 32 31 30 29 30 31 30 29 29 30 30 29 29 29 29 29 28 27 27 26 26 26 26 26 27 26 25 24 23 23 22 21 21 21 22 22 22
38 37 36 34 32 32 31 31 31 30 29 29 30 31 30 30 30 30 30 30 30 30 29 28 27 26 26 26 26 26 26 26 26 25 24 23 23 22 22 21 21 22 23 23
38 37 37 35 34 33 32 31 31 30 29 29 30 31 31 30 30 30 30 29 29 29 29 28 27 26 27 27 27 26 26 26 26 25 25 24 23 23 23 23 22 23 23 23
37 37 36 36 35 33 33 32 31 30 30 29 29 30 31 31 30 31 30 29 29 28 28 28 27 27 27 27 27 26 26 27 26 26 25 24 24 24 24 24 24 23 23 23
36 35 35 34 34 33 32 31 31 31 30 30 29 29 30 31 31 31 31 30 30 29 29 28 28 27 27 27 26 26 26 27 26 26 25 25 25 25 26 26 25 24 24 24
35 35 35 34 32 32 31 31 30 30 31 30 30 30 31 31 31 31 31 31 31 30 29 29 28 27 28 27 27 27 28 27 27 26 25 25 25 25 26 26 25 25 24 25
34 34 34 33 32 31 31 31 30 30 30 31 31 32 31 32 32 31 32 31 31 30 30 30 29 29 29 29 28 28 27 27 27 26 26 25 25 26 26 26 25 25 25 25
33 33 33 32 32 32 32 31 31 31 31 32 32 32 32 32 32 32 32 33 33 32 32 31 31 30 30 30 30 29 28 28 27 26 26 26 26 26 26 26 26 25 26 26
32 31 31 31 32 32 31 31 32 32 32 32 32 31 32 32 31 32 32 32 32 32 32 32 32 31 31 31 30 29 28 28 28 27 27 27 27 26 26 26 27 27 27 28
31 30 29 29 30 31 31 31 31 31 31 31 31 32 31 31 30 30 31 31 31 31 31 31 32 32 31 31 30 29 28 28 28 27 27 27 27 27 27 27 28 28 29 29
29 29 28 28 29 29 30 30 30 31 31 30 30 30 30 30 31 30 30 31 31 31 31 31 31 31 30 29 29 29 28 28 28 27 27 27 28 28 28 28 29 29 29 29
28 28 27 27 28 28 29 29 30 30 30 30 30 30 29 30 30 31 31 31 31 31 31 31 30 29 29 29 28 28 28 27 28 28 29 29 29 29 29 29 29 30 30 30
27 26 26 26 27 27 28 28 28 28 29 29 29 29 28 29 29 30 29 29 30 29 29 29 30 29 29 29 28 28 28 28 28 29 29 29 30 29 29 30 30 30 31 31
25 26 26 26 25 26 26 26 27 27 27 28 28 28 28 28 28 28 28 28 27 27 28 28 29 29 28 27 27 27 27 28 28 28 28 29 29 30 30 31 31 31 30 31
23 24 24 24 24 24 25 26 26 25 26 26 26 27 27 27 27 27 27 27 27 28 28 28 28 28 28 28 28 28 28 29 29 29 29 30 31 31 31 32 32 31 31 31
20 21 22 22 23 23 24 25 25 25 24 25 26 26 26 26 26 26 26 27 27 28 28 28 28 28 28 28 29 30 30 29 29 30 30 31 31 31 31 32 32 31 31 32
18 18 19 21 21 21 22 23 23 23 23 23 24 25 25 25 25 26 26 26 27 27 27 27 27 27 27 28 28 28 28 28 28 29 30 31 30 30 31 31 31 31 32 33

GEFSNGP_500_meanwind_240.txt.gz
Wind_Speed
32 26 23 24 24 25 26 25 23 19 19 21 22 22 22 21 20 19 18 16 16 16 16 16 16 17 18 18 18 17 17 18 18 17 17 17 17 17 18 18 18 18 17 17
35 31 26 25 25 25 26 26 25 23 23 23 22 23 23 23 23 21 20 18 17 17 18 18 18 18 19 19 19 19 18 18 18 18 18 18 18 18 19 19 19 18 18 18
36 32 30 31 29 27 27 26 26 25 26 26 26 24 24 25 24 23 21 21 20 19 19 19 19 19 20 20 20 20 20 19 18 18 19 19 19 19 19 19 19 19 19 19
37 34 35 32 28 27 27 28 28 27 27 27 27 27 28 27 26 24 24 23 22 21 20 20 21 21 21 21 21 21 21 20 19 19 19 20 20 20 20 20 20 20 20 20
38 36 34 31 30 29 29 31 30 28 28 28 29 29 29 28 27 26 25 25 24 23 22 22 22 22 22 22 22 22 22 21 21 20 20 20 20 21 21 21 21 21 21 21
39 36 34 30 29 28 29 32 31 30 30 30 31 31 29 29 28 28 26 26 25 25 24 23 23 23 23 24 23 23 23 23 23 22 22 21 21 22 22 22 22 22 21 21
39 37 34 29 29 30 32 32 30 30 32 32 32 32 30 30 29 29 28 27 27 26 25 25 25 25 25 25 25 24 24 24 24 24 23 23 23 23 23 23 23 23 22 22
39 37 34 32 30 32 33 31 31 31 33 33 33 32 32 32 31 31 30 29 27 27 27 27 27 26 26 26 26 26 25 24 25 25 24 25 24 24 24 23 23 23 23 22
38 39 37 36 36 35 35 33 32 32 32 31 32 32 32 32 31 31 30 29 28 28 28 28 28 28 28 27 27 27 26 26 25 25 25 26 25 25 25 24 24 23 23 23
40 41 40 39 38 37 36 34 33 32 32 32 33 33 33 32 31 32 31 30 29 29 29 29 29 29 29 29 28 28 27 26 26 26 26 26 26 25 25 24 24 24 24 24
42 41 40 40 40 40 38 35 33 33 33 33 33 33 33 33 32 32 32 31 31 31 31 31 31 30 30 29 29 28 28 28 27 27 27 27 26 26 25 25 26 26 25 25
42 42 41 42 42 40 38 36 34 33 33 33 34 33 33 33 31 31 32 31 31 31 32 32 32 31 30 30 29 29 29 28 28 28 27 26 26 26 26 26 26 27 26 26
39 39 39 38 39 39 38 36 34 34 33 33 34 33 33 32 31 31 32 32 31 32 32 32 32 32 31 30 29 29 28 28 28 28 28 27 26 26 26 27 28 27 27 27
38 37 38 39 39 38 37 36 35 35 35 34 34 33 33 33 33 33 33 33 32 32 32 32 32 32 31 31 30 30 30 29 29 28 28 28 28 28 27 28 28 28 28 28
40 39 38 38 37 37 37 36 36 36 35 35 34 33 33 33 33 34 34 33 33 33 33 33 32 32 32 31 31 31 31 30 30 29 29 29 29 30 29 29 30 29 29 28
39 39 39 38 37 36 36 35 35 36 37 35 34 34 34 34 34 34 34 34 34 34 33 33 33 32 32 31 31 32 32 32 31 30 31 31 31 30 30 30 30 31 29 28
39 39 39 37 36 36 36 35 36 36 37 37 36 35 35 34 34 34 35 34 34 34 34 33 33 32 32 31 32 32 32 31 31 31 31 31 31 30 30 30 30 29 29 28
39 39 38 36 35 36 35 36 36 36 36 35 36 35 35 35 35 35 35 34 35 34 34 34 33 32 32 32 32 32 32 32 32 31 31 31 31 32 31 31 30 30 29 29
38 37 36 35 34 35 35 34 34 34 34 34 34 34 34 34 35 35 34 35 35 35 35 35 34 33 33 32 33 33 32 32 32 33 33 32 32 32 31 31 31 30 30 29
35 35 35 34 33 33 34 34 33 33 33 32 33 33 33 34 34 34 33 33 34 34 35 35 35 34 34 33 33 33 33 33 34 33 33 32 31 31 31 32 32 31 31 31
32 32 33 32 32 32 32 32 31 31 31 31 31 32 32 33 33 33 33 32 32 32 33 34 35 35 35 34 33 34 34 34 33 33 32 32 31 31 30 31 31 31 31 32
30 30 30 30 31 31 31 31 30 30 30 31 31 31 32 32 32 31 31 31 30 30 31 32 33 34 34 34 33 33 34 34 33 33 31 30 30 31 31 32 32 32 32 32
27 27 28 29 29 29 29 30 29 29 29 30 31 31 32 32 32 32 31 31 31 30 31 31 32 32 33 33 33 33 33 32 31 30 30 29 29 29 30 30 31 32 32 33
25 25 26 26 27 27 27 28 29 29 29 30 30 30 30 30 30 31 31 31 31 31 31 32 32 32 32 32 32 32 32 31 30 30 30 30 30 30 31 31 32 32 33 33
24 24 25 26 26 26 26 27 28 28 29 30 30 30 29 29 30 30 29 30 31 31 31 30 30 31 31 31 31 31 30 30 29 29 30 30 31 31 32 32 32 32 32 33
22 22 23 24 25 25 25 26 27 28 29 29 29 29 29 29 29 29 29 29 29 29 28 29 30 29 29 30 31 30 30 29 29 30 30 30 29 30 31 31 31 31 31 31
21 21 21 22 23 24 24 25 26 26 26 26 26 27 27 27 27 27 27 27 26 26 26 27 27 27 27 27 27 27 28 28 28 29 29 29 29 29 28 28 29 30 30 31

GEFSNGP_500_meanwind_246.txt.gz
Wind_Speed
35 34 33 31 28 27 27 27 26 26 25 22 19 18 16 16 16 16 14 14 14 13 13 12 12 13 14 14 15 16 16 16 15 15 15 15 14 14 14 14 15 15 15 15
36 35 35 33 31 29 28 28 27 26 26 24 23 21 20 19 18 18 17 16 16 15 14 14 14 15 16 16 17 17 17 17 17 16 16 16 15 15 15 15 15 16 15 15
38 36 36 37 33 32 31 30 28 28 26 26 25 23 21 21 20 20 20 19 18 18 17 16 16 17 17 18 18 18 18 19 19 18 18 17 17 16 16 16 16 16 16 16
40 38 40 38 36 35 33 32 30 28 27 26 24 23 24 24 22 22 23 22 21 20 19 19 18 18 18 19 20 20 19 20 20 20 19 18 18 18 18 18 17 17 17 17
41 41 40 38 37 37 36 34 33 31 29 28 25 25 25 26 26 25 24 24 23 23 22 21 21 20 20 21 21 21 20 20 21 21 19 19 19 19 19 19 19 18 18 18
41 42 41 38 38 38 38 37 35 33 31 31 29 27 27 27 27 27 26 25 25 24 23 23 22 22 22 22 22 22 22 21 21 21 20 20 20 20 20 19 19 20 19 19
42 42 41 37 36 38 39 37 35 34 33 32 31 29 28 29 28 27 27 26 26 25 25 24 24 24 24 24 23 23 23 22 21 20 20 20 20 21 21 20 20 21 20 20
42 42 41 38 38 38 38 36 35 35 33 32 30 30 29 29 29 29 29 28 27 27 26 27 26 26 25 25 25 24 24 23 22 22 21 21 21 22 22 22 21 21 21 22
42 41 38 38 38 38 38 38 36 36 34 33 32 31 30 30 30 30 30 30 29 29 29 29 29 28 27 27 27 26 26 25 24 24 23 23 23 24 24 23 23 22 22 22
41 41 39 38 37 37 37 37 37 36 35 34 33 32 31 31 31 30 30 30 31 31 30 30 30 30 29 28 28 28 28 27 26 26 26 25 25 25 25 25 24 24 23 23
40 40 38 38 38 37 36 36 36 35 34 34 34 34 33 33 33 32 31 31 31 31 31 31 31 30 29 29 29 29 29 29 28 28 28 27 27 26 26 25 25 25 25 25
40 39 38 37 37 36 35 35 35 35 35 35 35 34 35 35 34 34 33 32 32 32 31 31 30 30 30 30 29 30 30 30 30 29 29 28 28 27 27 27 26 26 26 26
39 40 39 37 36 36 36 36 36 36 37 37 36 35 36 36 35 34 33 33 32 32 31 31 31 31 31 32 32 31 31 30 30 30 30 29 28 28 28 27 27 27 26 26
38 38 39 38 38 38 37 37 37 37 38 38 38 38 37 37 36 35 34 34 33 33 33 32 32 32 32 33 32 31 31 31 31 30 30 29 28 28 28 28 27 27 27 27
38 39 39 38 39 38 38 38 38 38 38 39 39 39 38 38 38 37 36 35 35 34 34 33 33 33 33 33 33 32 32 31 31 31 30 30 29 29 28 28 28 28 28 28
38 38 39 39 38 37 37 37 37 38 39 39 39 38 38 38 39 37 35 35 35 34 34 34 34 34 34 34 34 33 33 32 31 31 30 31 31 30 30 29 29 29 29 29
36 37 39 39 39 38 38 37 37 37 37 37 38 38 38 38 38 37 36 35 34 34 35 35 35 35 35 35 34 34 34 33 32 32 31 31 31 31 31 31 30 30 30 29
37 36 37 38 39 39 38 38 38 38 38 37 37 38 38 37 35 35 35 35 35 34 34 34 35 35 34 34 34 33 33 34 34 33 33 32 32 32 32 32 31 31 30 30
37 37 36 35 36 37 37 36 37 38 37 36 36 35 35 35 35 35 34 35 35 35 34 35 35 36 35 35 34 34 34 34 35 34 34 34 34 33 33 32 32 31 31 32
34 36 35 35 35 35 35 35 35 36 36 35 34 34 34 34 34 34 33 33 33 33 34 34 34 35 35 35 35 35 35 35 35 35 34 34 34 34 33 32 32 32 32 32
32 33 33 33 34 34 34 35 35 35 34 33 33 33 33 33 33 33 33 32 32 32 33 33 33 33 34 34 34 34 34 34 34 35 34 33 33 32 32 33 32 32 32 32
30 32 33 32 32 33 33 33 33 32 32 31 32 31 31 31 31 31 31 30 30 31 32 31 31 31 31 32 33 34 34 33 33 33 33 32 31 31 31 32 32 32 31 31
29 30 30 31 31 32 31 31 30 30 30 29 30 30 29 29 29 29 29 29 28 29 30 29 29 30 30 31 31 32 33 32 32 31 30 30 30 30 30 30 30 31 31 32
24 25 26 28 29 29 29 28 27 27 28 28 28 28 28 28 28 28 27 27 28 29 29 29 29 29 30 31 31 32 31 30 29 29 29 28 29 29 28 28 28 29 30 30
20 21 23 24 26 27 27 26 25 25 25 25 26 27 28 28 28 27 27 28 28 27 28 28 28 29 30 30 30 29 28 28 27 28 27 27 27 27 27 27 27 28 29 29
17 18 20 21 22 23 24 23 23 23 23 24 24 24 25 26 26 26 26 25 25 26 26 26 26 27 27 27 26 25 25 26 26 26 26 26 27 27 27 28 28 28 29 30
16 17 17 18 19 20 21 20 20 21 21 22 22 22 23 24 24 24 24 25 25 25 25 24 24 24 23 24 23 23 23 23 24 24 25 26 26 27 27 27 27 27 27 28

GEFSNGP_500_meanwind_252.txt.gz
Wind_Speed
36 35 34 33 32 31 31 29 28 26 23 21 19 18 17 16 15 15 13 13 12 12 12 13 13 13 13 13 14 15 16 17 16 16 17 17 16 16 16 17 17 17 16 16
38 37 36 35 34 34 33 31 29 27 25 23 22 20 19 18 17 17 16 15 15 14 14 14 15 15 15 15 16 16 17 18 17 17 18 17 18 18 18 18 18 17 17 17
38 38 37 37 36 35 35 33 31 28 25 25 24 22 21 20 19 19 18 18 17 17 17 16 16 16 17 17 17 18 19 19 19 19 19 19 19 19 20 20 20 19 19 18
37 37 39 38 35 35 34 33 32 30 28 27 26 24 23 22 22 21 20 20 20 20 19 17 18 18 18 19 19 19 20 20 20 20 20 20 21 21 21 22 21 21 20 20
39 38 39 38 37 36 36 35 33 31 30 29 28 27 25 24 24 24 23 23 22 21 21 20 20 20 20 21 21 21 21 21 21 21 22 22 22 22 22 22 22 22 21 20
41 40 40 38 37 38 37 37 34 32 31 30 30 29 27 26 26 26 26 25 24 24 24 23 23 23 23 23 23 23 22 22 22 22 22 22 23 23 23 23 23 23 22 21
41 41 40 39 37 37 38 37 35 34 32 32 31 30 29 29 28 28 27 26 26 27 27 26 26 26 26 25 24 23 23 23 23 23 23 24 24 24 24 24 24 24 24 23
41 41 40 39 38 37 37 36 35 35 33 32 32 31 31 31 30 29 28 28 29 29 29 28 27 27 27 27 26 26 25 25 25 25 25 25 25 25 26 25 25 25 26 25
42 41 39 38 38 37 36 36 36 36 36 34 33 32 32 31 30 29 30 30 31 31 30 29 29 29 29 29 29 28 27 26 26 27 27 27 27 27 27 27 27 27 27 27
41 40 39 38 38 38 37 36 35 35 36 36 34 33 32 32 30 30 31 32 33 31 30 30 30 30 30 31 30 30 29 29 29 29 29 29 29 29 29 29 29 29 28 29
42 40 39 38 38 38 37 36 35 35 34 34 34 33 31 31 30 30 29 30 31 32 32 32 32 32 32 32 32 32 32 32 31 31 32 32 32 32 31 31 31 31 30 31
41 41 40 38 38 38 38 38 37 36 35 33 32 32 32 32 31 31 31 31 31 32 33 34 34 33 34 34 34 34 34 33 33 33 33 34 34 34 33 33 32 32 33 32
40 40 39 38 38 39 38 38 38 38 37 36 34 33 33 32 33 33 32 32 33 33 33 34 35 35 35 34 35 35 36 35 34 34 34 35 35 35 34 33 33 33 33 32
40 40 40 39 38 38 38 38 38 38 37 36 35 34 33 33 32 33 33 34 34 34 34 35 36 36 36 36 37 37 37 37 36 35 36 35 35 34 34 33 33 33 33 32
39 39 39 39 39 38 38 38 37 37 37 37 36 35 35 34 33 33 34 35 35 35 35 36 37 37 37 37 37 37 37 37 37 37 36 35 35 34 34 34 34 34 33 33
39 39 39 39 38 37 37 37 36 35 36 36 37 36 36 35 35 35 35 35 35 35 36 37 37 37 37 36 36 36 38 38 37 37 36 36 35 35 35 35 34 34 34 35
37 38 38 37 37 36 36 35 35 35 35 35 36 36 35 36 36 36 36 36 36 36 37 37 37 36 35 36 36 37 37 37 36 36 37 36 34 34 34 35 35 35 35 34
36 36 35 35 35 35 35 35 35 35 35 33 34 34 34 34 34 35 36 36 36 36 36 36 36 36 36 36 36 36 36 36 36 36 36 35 34 34 34 34 35 35 35 34
36 36 35 35 34 34 34 34 34 33 33 33 32 32 32 32 33 34 34 35 35 36 36 36 36 36 36 36 37 37 36 36 36 36 35 35 35 35 35 35 35 35 35 34
34 34 34 33 33 32 32 32 33 33 33 32 32 32 31 32 31 31 32 33 33 34 34 34 34 35 35 35 35 35 35 36 36 35 36 36 35 35 35 36 35 35 35 35
32 32 32 31 31 31 31 32 32 32 32 32 31 31 30 30 30 31 31 31 32 33 33 34 35 36 35 35 36 36 35 35 34 35 35 35 35 35 35 36 36 35 35 35
30 30 30 30 30 31 31 32 32 32 32 33 32 31 31 30 30 30 31 31 32 32 32 33 33 33 33 34 34 34 34 34 34 34 34 34 34 35 35 35 35 34 34 34
29 29 29 29 29 29 30 30 30 31 31 31 30 30 30 30 30 29 29 30 30 31 31 31 31 31 31 31 31 32 32 32 32 33 33 33 34 34 34 34 33 33 33 33
27 27 27 27 28 27 27 28 29 29 29 29 29 28 28 28 28 28 28 28 29 30 29 29 28 29 29 29 29 30 30 30 30 31 31 31 31 32 33 32 32 32 32 32
23 24 25 25 26 27 26 26 26 26 25 25 26 27 28 28 27 26 26 26 26 26 26 26 26 26 26 26 27 28 28 28 29 29 29 29 29 29 28 28 29 28 29 29
18 19 20 22 24 24 24 24 23 23 24 25 25 26 27 27 27 26 25 25 25 25 25 25 25 26 26 26 26 26 26 26 26 27 27 27 27 27 27 26 26 26 27 27
15 16 17 17 18 19 19 19 19 21 22 23 23 24 23 24 24 24 24 23 23 24 25 25 25 25 24 24 24 24 24 25 25 25 25 25 25 25 25 25 25 26 27 28

GEFSNGP_500_meanwind_258.txt.gz
Wind_Speed
32 31 30 30 30 30 30 28 25 23 22 20 19 17 16 16 15 14 13 13 12 12 11 11 11 11 12 12 12 12 13 13 13 14 15 15 15 14 14 15 15 16 16 16
33 32 32 32 32 31 31 29 27 26 24 21 20 20 18 18 17 16 15 14 13 14 13 13 13 13 13 13 14 14 14 15 15 16 16 16 16 16 16 16 16 16 17 17
34 33 32 34 33 33 32 30 29 27 25 23 22 22 21 19 18 17 16 16 16 16 16 15 15 15 15 15 15 16 16 16 17 17 17 17 18 18 18 18 18 18 18 19
35 35 35 35 33 33 32 31 30 29 27 25 24 23 23 22 21 21 20 20 19 19 18 18 17 18 18 18 18 19 18 18 19 19 20 20 20 20 20 20 20 20 20 20
36 35 36 36 35 34 33 33 31 30 29 27 26 25 25 24 23 24 23 22 22 21 21 21 20 20 21 20 20 21 21 21 21 22 22 22 22 22 22 22 21 22 22 22
38 36 36 36 35 34 34 35 32 31 30 29 28 27 27 25 25 25 24 25 24 24 24 23 23 23 22 22 23 23 23 23 23 24 24 24 24 23 23 24 24 24 24 24
38 37 36 36 36 35 36 35 33 32 31 30 30 29 28 27 27 26 25 25 25 24 25 25 25 25 24 24 25 25 25 26 26 26 26 26 26 26 26 26 26 26 26 25
39 39 38 37 37 37 36 35 34 33 32 31 30 30 29 28 27 27 27 27 26 25 26 26 26 26 27 27 28 28 28 28 29 29 28 28 28 27 28 27 28 27 27 27
41 40 39 38 38 37 37 36 35 34 33 33 32 31 30 28 28 28 28 28 28 28 28 28 29 29 30 30 30 30 30 31 31 31 30 30 29 29 29 29 29 28 28 28
41 41 40 39 38 37 36 36 36 36 35 34 33 32 31 30 30 29 30 30 30 30 30 30 30 31 31 31 32 32 32 32 32 32 31 31 31 32 32 31 31 31 30 30
40 40 39 38 37 37 37 36 36 37 36 35 34 33 32 32 31 31 31 31 31 31 30 30 30 31 32 33 33 33 33 33 33 33 32 32 32 33 33 33 33 33 32 32
39 40 39 38 36 36 36 35 35 36 36 35 34 33 33 33 33 33 32 32 32 31 32 31 31 31 33 34 35 35 34 34 34 34 34 34 34 34 35 35 35 35 34 33
36 37 37 37 37 37 36 35 35 34 34 34 34 35 35 34 34 34 34 33 32 32 32 32 32 33 34 35 35 36 36 36 36 36 36 36 36 36 36 36 35 35 34 33
36 35 35 36 36 36 36 35 34 34 34 34 35 35 34 34 34 33 33 33 32 33 33 33 34 34 35 36 36 37 37 38 38 38 38 37 38 38 37 36 36 36 35 34
36 35 35 35 35 35 35 35 34 34 35 35 34 34 34 34 34 34 33 33 33 33 33 34 35 36 36 37 37 37 38 38 38 38 38 38 38 38 38 38 37 36 36 36
34 34 34 34 34 34 35 35 35 34 35 35 35 35 34 34 34 34 34 34 34 33 34 35 36 36 36 36 37 37 37 38 38 38 38 38 38 38 38 38 37 37 35 35
32 33 33 33 33 34 34 34 33 33 33 34 35 35 35 35 35 35 34 34 34 33 33 34 34 35 35 35 35 36 36 36 37 37 38 38 38 38 37 37 35 34 34 34
30 31 31 31 32 32 33 33 33 32 31 32 33 33 34 34 33 33 33 33 33 33 33 33 34 34 35 35 35 35 36 36 36 37 37 37 38 38 37 36 34 34 34 34
30 30 30 30 30 31 31 31 31 31 31 31 31 32 32 32 32 32 33 32 32 32 33 33 34 34 34 34 34 35 35 35 36 36 36 35 35 34 34 34 33 34 35 35
29 30 29 29 29 30 31 30 30 30 30 30 30 30 30 31 32 32 32 31 31 31 31 31 31 31 31 33 34 34 33 33 33 32 32 33 33 33 33 33 33 34 34 34
26 28 29 29 29 29 29 29 29 29 30 30 30 30 30 30 31 31 30 30 30 30 29 30 30 31 31 32 33 33 32 31 32 32 32 32 33 33 33 33 32 32 33 33
25 25 26 27 27 28 28 28 29 29 29 29 30 30 30 30 29 29 29 30 30 30 29 29 29 30 31 31 31 32 31 31 31 30 31 31 30 31 31 31 31 31 31 31
22 23 24 25 26 26 27 27 28 29 28 29 29 29 28 28 28 29 29 29 28 29 29 29 29 30 30 30 30 30 30 30 29 29 29 30 30 30 30 30 29 29 30 30
19 21 22 23 24 25 25 26 26 27 27 26 27 28 27 27 27 27 28 27 27 28 28 28 29 29 29 29 29 29 29 28 28 28 28 28 29 29 29 29 29 30 30 30
20 20 21 21 22 22 22 23 24 24 25 25 25 26 26 27 27 27 27 28 27 27 28 27 26 26 27 27 27 27 27 26 26 27 28 29 29 28 28 29 29 30 30 31
18 18 19 20 21 21 21 21 22 22 23 24 25 25 26 26 27 27 28 27 27 27 26 26 26 25 26 26 26 26 26 26 26 26 26 26 26 26 26 27 27 28 29 29
17 18 19 19 19 19 20 20 20 20 21 21 22 23 25 26 27 27 27 27 26 26 26 26 25 25 25 25 26 26 26 25 25 25 24 24 24 25 25 25 26 27 27 28

GEFSNGP_500_meanwind_264.txt.gz
Wind_Speed
28 25 24 24 24 24 25 24 23 21 21 19 18 17 17 17 16 16 16 16 16 16 15 15 14 14 15 14 14 14 14 14 14 15 15 16 16 17 17 18 18 18 18 19
31 28 27 27 26 26 26 25 24 23 23 22 20 20 20 20 19 18 18 18 17 17 17 17 16 17 16 16 16 16 16 15 16 16 17 18 18 19 19 20 20 20 20 20
33 30 29 30 27 26 25 25 25 26 26 23 21 21 23 24 22 21 21 20 19 18 17 17 17 18 18 18 18 18 18 18 18 18 19 20 20 21 21 22 22 21 21 21
33 32 34 32 28 27 27 27 27 28 26 23 22 22 23 25 25 25 23 22 21 20 20 19 19 19 20 20 20 21 21 21 21 21 22 22 23 23 24 24 23 23 23 23
34 34 33 32 29 29 30 29 29 29 28 26 26 26 26 25 26 26 24 23 22 22 22 21 21 20 21 22 22 22 22 23 23 23 24 24 25 25 26 25 25 25 25 25
36 36 35 34 30 28 30 32 31 31 31 31 30 29 28 27 27 27 26 24 24 24 23 23 23 22 23 23 24 24 24 25 25 25 26 27 27 27 28 28 27 27 27 27
38 37 36 33 31 29 31 34 34 34 34 34 32 31 30 30 29 28 27 26 25 25 24 25 25 23 23 25 25 26 26 27 27 27 27 28 29 30 30 29 28 28 28 28
37 36 36 33 31 33 34 33 33 34 34 34 33 32 32 32 30 29 27 27 26 26 26 26 26 25 25 25 26 26 27 27 28 28 29 30 31 31 31 31 31 30 30 29
36 36 36 34 34 35 34 35 35 35 35 33 34 34 33 33 32 30 29 28 27 27 27 26 26 26 26 26 26 27 28 27 28 29 30 31 31 32 33 32 32 31 31 31
37 37 37 36 36 35 35 35 36 37 36 34 35 35 34 34 32 30 30 30 29 29 28 27 27 28 27 27 27 28 29 29 29 29 30 31 32 33 33 32 32 32 33 33
38 38 37 37 37 36 36 35 36 37 37 36 35 35 35 35 33 31 31 31 31 30 30 29 29 28 29 29 30 29 29 30 30 31 32 33 33 32 32 33 33 33 34 34
39 39 38 38 37 36 37 37 36 35 36 37 37 36 35 35 34 33 33 32 31 32 31 31 31 31 32 32 31 31 31 31 32 32 33 34 33 33 33 34 34 34 34 35
42 41 40 39 37 36 36 37 37 36 36 36 37 37 36 36 35 34 34 33 33 33 33 33 32 32 32 32 32 32 32 32 33 33 34 34 34 34 34 35 35 35 35 35
40 41 40 39 38 38 37 37 37 37 36 36 36 36 36 36 36 35 35 34 34 34 34 34 34 34 33 32 33 33 33 34 35 35 35 34 35 35 35 36 36 36 36 36
38 40 40 39 37 37 37 36 36 36 36 36 36 37 37 36 35 35 36 36 36 35 34 34 34 33 33 33 34 33 34 35 35 35 35 34 35 35 36 36 36 36 37 38
36 37 39 38 37 36 35 35 35 36 37 36 36 36 36 35 35 35 35 36 35 35 35 34 33 33 34 34 34 34 34 34 34 34 35 35 35 36 36 36 37 37 37 37
32 33 34 35 35 35 35 34 36 36 36 36 35 34 34 34 34 34 34 34 34 35 35 35 34 33 33 34 35 35 35 34 34 34 35 35 36 36 36 37 37 37 36 36
30 30 31 32 33 33 34 34 35 34 33 33 33 33 33 33 33 33 34 33 33 34 34 34 34 35 34 34 34 34 34 34 34 35 35 35 35 36 37 37 36 36 35 35
29 29 30 31 32 32 32 33 33 32 32 33 33 33 32 32 32 33 34 34 34 34 34 34 34 34 34 34 34 34 34 34 34 35 36 36 36 36 36 36 35 34 34 34
29 28 28 29 30 30 30 30 30 31 31 32 32 32 32 32 33 33 34 34 34 34 34 35 34 33 33 33 33 33 34 34 34 34 35 36 36 35 35 35 35 34 34 34
26 27 27 27 27 27 28 28 28 29 30 30 31 32 32 32 32 33 33 33 33 33 33 33 33 33 33 33 33 33 32 32 33 34 34 34 34 33 33 33 34 33 33 33
23 23 24 24 25 25 26 26 26 26 27 27 28 29 30 31 31 31 31 32 32 32 32 32 32 32 32 32 32 32 32 32 32 32 32 32 32 33 33 33 33 33 32 31
20 21 21 22 23 24 24 24 24 25 25 26 26 27 27 27 28 28 28 29 30 30 31 30 30 31 31 31 31 30 30 31 31 31 31 31 31 32 33 32 32 32 32 32
17 19 20 21 22 23 23 23 24 24 25 25 26 26 26 26 26 27 27 27 28 28 29 30 29 30 30 30 30 30 30 30 30 31 31 31 31 32 31 31 31 31 32 32
16 16 18 18 19 21 21 22 23 23 23 24 25 25 25 25 26 26 27 27 27 27 27 27 27 28 29 29 29 30 30 30 30 30 31 31 31 32 32 32 32 32 32 32
14 14 15 16 17 18 19 20 21 21 22 22 23 23 23 24 25 25 25 26 26 25 25 25 26 27 28 28 29 30 29 29 29 29 30 31 31 31 30 31 31 30 30 30
12 14 15 15 16 16 16 18 19 19 19 19 20 21 21 22 23 23 23 23 24 24 24 25 25 26 27 28 28 28 27 27 28 29 30 30 29 29 28 28 28 29 29 29